[[{"header":{"parameterUnit":"m.s-1","parameterCategory":2,"la1":30.2991,"la2":30.254,"lo1":-89.0895,"lo2":-89.0444,"dy":0.0017,"dx":0.0017,"nx":28,"ny":28,"refTime":"2025-02-04T03:00:00:Z","depth":"0","parameterNumber":2,"parameterNumberName":"U-component_of_CURRENTS"},"data":[0,0,0,0,0,0,0,0,0,0,0,0,0,0,0,0,0,0,0,0,0,0,0,0,0,0,0,0,0,0,0,0,0,0,0,0,0,0,0,0,0,0,0,0,0,0,0,0,0,0,0,0,0,0,0,0,0,0,-0.1526,-0.1526,0,-0.1439,-0.1438,-0.1436,-0.1369,-0.1369,-0.1368,-0.1368,-0.1224,-0.1221,-0.1217,0,0,0,0,0,0,0,0,0,0,0,0,0,-0.1559,-0.1559,-0.1526,-0.1526,-0.1525,-0.1439,-0.1438,-0.1436,-0.1369,-0.1369,-0.1368,-0.1368,-0.1225,-0.1221,-0.1217,0,0,0,0,0,0,0,0,0,0,0,0,0,-0.1513,-0.1559,-0.1527,-0.1483,-0.1478,-0.1439,-0.1437,-0.1436,-0.1369,-0.1369,-0.1368,-0.1368,-0.1227,-0.1222,-0.1217,-0.1197,0,0,-0.1201,-0.1199,0,0,0,0,0,0,0,0,-0.1516,-0.1512,-0.149,-0.1486,-0.148,-0.1416,-0.1396,-0.1354,-0.1369,-0.1408,-0.1368,-0.1367,-0.1285,-0.1275,-0.1258,-0.119,-0.1184,-0.12,-0.1197,-0.1195,-0.1194,0,0,0,0,0,0,0,-0.1519,-0.1515,-0.1489,-0.1489,-0.1483,-0.1441,-0.1435,-0.1388,-0.1348,-0.1405,-0.14,-0.1394,-0.1282,-0.1263,-0.1254,-0.1182,-0.1201,-0.1196,-0.1193,-0.1191,-0.1098,-0.1098,0,0,0,0,0,0,-0.154,-0.1518,-0.1492,-0.1487,-0.15,-0.1442,-0.1434,-0.1436,-0.135,-0.1337,-0.1395,-0.1392,-0.1272,-0.126,-0.1248,-0.1244,-0.1195,-0.119,-0.1187,-0.1097,-0.1098,-0.1098,0,0,0,0,0,0,-0.1541,-0.1539,-0.1496,-0.1502,-0.1494,-0.1443,-0.1444,-0.1434,-0.1421,-0.1344,-0.1329,-0.1394,-0.1271,-0.1255,-0.122,-0.1237,-0.1188,-0.1183,-0.1096,-0.1097,-0.1098,-0.1219,0,0,0,0,0,0,-0.1542,-0.154,-0.1551,-0.1504,-0.1494,-0.1492,-0.1445,-0.1433,-0.142,-0.1414,-0.1338,-0.1323,-0.1269,-0.1228,-0.1215,-0.1229,-0.1179,-0.1095,-0.1097,-0.1098,-0.1214,-0.1224,-0.1232,0,0,0,0,0,-0.1544,-0.157,-0.1553,-0.155,-0.1511,-0.1493,-0.1485,-0.1443,-0.1421,-0.1427,-0.1373,-0.1326,-0.1226,-0.1225,-0.1209,-0.1222,-0.1095,-0.1096,-0.1098,-0.121,-0.1222,-0.1232,0,0,0,0,0,0,-0.1597,-0.1564,-0.1544,-0.1561,-0.1536,-0.1483,-0.149,-0.1456,-0.1418,-0.1415,-0.1334,-0.1317,-0.1287,-0.124,-0.1241,-0.1197,-0.1152,-0.1151,-0.1243,-0.1254,-0.1262,-0.1279,-0.1175,0,0,0,0,0,-0.1614,-0.162,-0.1582,-0.1596,-0.1592,-0.1542,-0.153,-0.1504,-0.1462,-0.1445,-0.1388,-0.133,-0.128,-0.1258,-0.1205,-0.1187,-0.1148,-0.1183,-0.1193,-0.1201,-0.1203,-0.1158,-0.1163,-0.1103,-0.1103,-0.1103,0,0,-0.1636,-0.1622,-0.1624,-0.1607,-0.1586,-0.1596,-0.1533,-0.1532,-0.153,-0.1436,-0.1419,-0.1358,-0.128,-0.1256,-0.124,-0.1221,-0.1203,-0.1203,-0.121,-0.1207,-0.116,-0.1166,-0.1171,-0.1104,-0.1104,-0.1104,0,0,-0.1698,-0.1678,-0.1708,-0.1695,-0.1678,-0.1646,-0.1653,-0.1608,-0.1581,-0.1558,-0.1486,-0.1438,-0.1369,-0.1315,-0.1278,-0.1306,-0.1249,-0.1292,-0.1356,-0.1313,-0.1318,-0.1321,-0.1311,-0.1312,-0.1302,-0.1303,-0.1303,0,-0.1732,-0.1757,-0.1715,-0.1745,-0.1738,-0.1678,-0.1706,-0.1676,-0.1622,-0.1595,-0.1572,-0.1456,-0.1395,-0.1348,-0.136,-0.1326,-0.1305,-0.1325,-0.1327,-0.1329,-0.1331,-0.1318,-0.1318,-0.1309,-0.1308,-0.1307,-0.1307,0,-0.1809,-0.1831,-0.1852,-0.1862,-0.1851,-0.1866,-0.1819,-0.1807,-0.1763,-0.1711,-0.1653,-0.1568,-0.1496,-0.1473,-0.1426,-0.1405,-0.1389,-0.1342,-0.1305,-0.1344,-0.1329,-0.1327,-0.1317,-0.1315,-0.1313,-0.1312,0,0,-0.1875,-0.1902,-0.1909,-0.1918,-0.1909,-0.1899,-0.1912,-0.1879,-0.186,-0.1805,-0.177,-0.1688,-0.1626,-0.158,-0.1509,-0.1475,-0.1478,-0.1429,-0.1424,-0.1431,-0.1415,-0.1369,-0.1361,-0.1437,-0.1437,-0.1436,-0.1411,0,-0.1947,-0.2018,-0.2007,-0.205,-0.207,-0.2024,-0.2017,-0.1976,-0.1929,-0.1881,-0.1787,-0.1715,-0.167,-0.1625,-0.1596,-0.1483,-0.1474,-0.1491,-0.1364,-0.1361,-0.1324,-0.1357,-0.1298,-0.1267,-0.1409,-0.1408,-0.1408,0,-0.2017,-0.2049,-0.2111,-0.2108,-0.2109,-0.2119,-0.2081,-0.2065,-0.1994,-0.1948,-0.1892,-0.1807,-0.1736,-0.1687,-0.1575,-0.1591,-0.1529,-0.1458,-0.1454,-0.1362,-0.1309,-0.1241,-0.1257,-0.1223,-0.1404,-0.1405,-0.1405,0,-0.2044,-0.2108,-0.2148,-0.2154,-0.2151,-0.2154,-0.2137,-0.2082,-0.2036,-0.198,-0.1932,-0.186,-0.1776,-0.1709,-0.1577,-0.1578,-0.1452,-0.1426,-0.134,-0.1337,-0.1234,-0.1222,-0.1205,-0.1373,-0.1373,-0.1373,-0.1373,0,-0.2098,-0.2125,-0.2163,-0.2175,-0.2181,-0.2171,-0.2147,-0.2123,-0.2065,-0.199,-0.1951,-0.1877,-0.1772,-0.1681,-0.1604,-0.1464,-0.1477,-0.1359,-0.1322,-0.1278,-0.127,-0.119,-0.1177,-0.1372,-0.1372,-0.1372,-0.1372,0,-0.21,-0.2138,-0.217,-0.2193,-0.2188,-0.2181,-0.2135,-0.2093,-0.2063,-0.1976,-0.1948,-0.1866,-0.1749,-0.1657,-0.1519,-0.146,-0.131,-0.1304,-0.1277,-0.1238,-0.1131,-0.1126,-0.1061,-0.1035,-0.122,-0.1218,-0.1217,0,-0.2103,-0.2124,-0.216,-0.2146,-0.2152,-0.2139,-0.2091,-0.2075,-0.2026,-0.1946,-0.1885,-0.1787,-0.1667,-0.1491,-0.138,-0.1263,-0.1239,-0.1155,-0.1138,-0.1126,-0.1093,-0.1108,-0.1094,-0.1067,-0.1065,-0.1063,-0.1061,0,-0.2065,-0.2081,-0.2079,-0.2071,-0.2044,-0.2018,-0.1974,-0.1943,-0.1892,-0.1834,-0.172,-0.1635,-0.1494,-0.1326,-0.1207,-0.1136,-0.1119,-0.1112,-0.1089,-0.0968,-0.0991,-0.0948,-0.1115,-0.1045,-0.1046,-0.1048,-0.1048,-0.1049,-0.1981,-0.1968,-0.1948,-0.1917,-0.1899,-0.1839,-0.1755,-0.1738,-0.1645,-0.152,-0.155,-0.1385,-0.1274,-0.1084,-0.1032,-0.0924,-0.097,-0.0879,-0.0877,-0.0898,-0.086,-0.1011,-0.0899,-0.09,-0.09,-0.0901,-0.0902,0,-0.1815,-0.1792,-0.1776,-0.1701,-0.1623,-0.1678,-0.1595,-0.1496,-0.1358,-0.1344,-0.125,-0.1062,-0.093,-0.0857,-0.0737,-0.0688,-0.0706,-0.0682,-0.0692,-0.069,-0.0801,-0.0779,-0.0648,-0.0648,-0.0648,-0.0648,-0.0648,-0.0648,-0.1704,-0.1614,-0.1607,-0.1414,-0.1372,-0.1192,-0.1123,-0.1071,-0.1029,-0.0895,-0.079,-0.0741,-0.064,-0.0595,-0.0528,-0.0529,-0.0527,-0.0521,-0.0547,-0.0621,-0.064,-0.0659,-0.0636,-0.0477,-0.0477,-0.0427,-0.0426,-0.0426]},{"header":{"parameterUnit":"m.s-1","parameterCategory":2,"la1":30.2991,"la2":30.254,"lo1":-89.0895,"lo2":-89.0444,"dy":0.0017,"dx":0.0017,"nx":28,"ny":28,"refTime":"2025-02-04T03:00:00:Z","depth":"0","parameterNumber":3,"parameterNumberName":"V-component_of_CURRENTS"},"data":[0,0,0,0,0,0,0,0,0,0,0,0,0,0,0,0,0,0,0,0,0,0,0,0,0,0,0,0,0,0,0,0,0,0,0,0,0,0,0,0,0,0,0,0,0,0,0,0,0,0,0,0,0,0,0,0,0,0,0.101,0.101,0,0.1074,0.1075,0.1076,0.112,0.112,0.1121,0.1121,0.1219,0.1221,0.1223,0,0,0,0,0,0,0,0,0,0,0,0,0,0.0959,0.096,0.1009,0.101,0.1011,0.1074,0.1075,0.1076,0.112,0.112,0.1121,0.1121,0.1218,0.1221,0.1224,0,0,0,0,0,0,0,0,0,0,0,0,0,0.0999,0.096,0.1009,0.104,0.1043,0.1074,0.1075,0.1077,0.112,0.112,0.1121,0.1121,0.1217,0.122,0.1224,0.1238,0,0,0.1235,0.1236,0,0,0,0,0,0,0,0,0.0996,0.1001,0.1035,0.1038,0.1042,0.1089,0.1093,0.1132,0.112,0.1092,0.1121,0.1121,0.1178,0.1184,0.1196,0.1243,0.1247,0.1235,0.1237,0.1239,0.124,0,0,0,0,0,0,0,0.0994,0.0998,0.1036,0.1036,0.104,0.1063,0.1069,0.1101,0.1133,0.1094,0.1097,0.1103,0.118,0.1193,0.1199,0.1248,0.1235,0.1238,0.124,0.1242,0.1361,0.1362,0,0,0,0,0,0,0.0982,0.0995,0.1034,0.1038,0.1019,0.1063,0.107,0.1074,0.1132,0.1141,0.1103,0.1105,0.1186,0.1195,0.1203,0.1274,0.1239,0.1242,0.1244,0.136,0.1361,0.1362,0,0,0,0,0,0,0.0981,0.0985,0.1031,0.1018,0.1025,0.1063,0.1068,0.1075,0.1089,0.1138,0.1148,0.1109,0.1187,0.1198,0.1253,0.1277,0.1244,0.1247,0.1359,0.136,0.1362,0.1385,0,0,0,0,0,0,0.0979,0.0984,0.0983,0.1017,0.1025,0.1052,0.1068,0.1076,0.1091,0.1095,0.1147,0.1156,0.1188,0.1248,0.1257,0.1281,0.125,0.1357,0.1359,0.1361,0.1383,0.1387,0.1391,0,0,0,0,0,0.0977,0.0976,0.0982,0.0987,0.1023,0.1052,0.1059,0.1088,0.1091,0.1101,0.1148,0.1155,0.1266,0.1252,0.1262,0.1288,0.1357,0.1359,0.1361,0.1381,0.1387,0.1391,0,0,0,0,0,0,0.0945,0.0982,0.0989,0.0996,0.1022,0.106,0.1069,0.1083,0.1125,0.113,0.1173,0.1187,0.1243,0.1259,0.1242,0.1327,0.131,0.1315,0.1322,0.1327,0.1331,0.13,0.1253,0,0,0,0,0,0.0938,0.0953,0.0984,0.0989,0.1,0.1031,0.1045,0.1065,0.1104,0.1121,0.1159,0.1205,0.1259,0.1287,0.1329,0.1375,0.1374,0.1396,0.14,0.1403,0.1384,0.1426,0.1432,0.137,0.137,0.137,0,0,0.0925,0.0948,0.0954,0.0985,0.1005,0.1024,0.1041,0.1062,0.109,0.1126,0.1174,0.1217,0.1274,0.1335,0.136,0.1353,0.1419,0.1406,0.1408,0.1388,0.1429,0.1435,0.144,0.1372,0.1371,0.1371,0,0,0.0907,0.0927,0.0932,0.0955,0.0987,0.1016,0.1019,0.1057,0.1088,0.1138,0.118,0.1236,0.1303,0.1358,0.1393,0.1439,0.1437,0.1451,0.1451,0.1493,0.1498,0.1502,0.15,0.1504,0.1455,0.1455,0.1455,0,0.0883,0.0898,0.0937,0.0948,0.0965,0.1009,0.1016,0.1061,0.1115,0.1144,0.1154,0.1266,0.1315,0.1401,0.1424,0.1448,0.1452,0.1432,0.1497,0.1501,0.1505,0.1502,0.1506,0.1457,0.1457,0.1456,0.1456,0,0.087,0.0884,0.0889,0.0924,0.0952,0.0965,0.1027,0.1066,0.1104,0.1143,0.1222,0.1295,0.1354,0.1393,0.1427,0.1489,0.1475,0.1496,0.1482,0.1513,0.1507,0.1511,0.1459,0.1458,0.1458,0.1457,0,0,0.0788,0.0864,0.0859,0.0873,0.0938,0.0951,0.1019,0.1081,0.1113,0.1183,0.1223,0.1337,0.1357,0.1397,0.1451,0.1497,0.1539,0.1505,0.1507,0.1495,0.1598,0.1537,0.1535,0.1576,0.1577,0.1578,0.1579,0,0.0754,0.0767,0.0825,0.084,0.0851,0.0931,0.0982,0.1051,0.112,0.1173,0.1265,0.1315,0.1368,0.139,0.1453,0.1519,0.1551,0.1534,0.1574,0.1574,0.1512,0.1539,0.1478,0.147,0.1582,0.1583,0.1584,0,0.0696,0.0725,0.0727,0.0799,0.0808,0.083,0.0911,0.0963,0.1074,0.1127,0.1207,0.1266,0.1355,0.1381,0.1503,0.1489,0.1532,0.1579,0.1581,0.1513,0.1521,0.146,0.1472,0.1481,0.1589,0.1589,0.1588,0,0.0585,0.0644,0.0643,0.0662,0.0754,0.0777,0.0824,0.0931,0.0972,0.1076,0.1101,0.1229,0.1262,0.1365,0.1467,0.1485,0.1574,0.1613,0.1593,0.1588,0.1535,0.1523,0.1551,0.1672,0.1672,0.1672,0.1672,0,0.0506,0.0506,0.0587,0.058,0.0588,0.0679,0.0701,0.0779,0.0872,0.0916,0.1041,0.1092,0.1258,0.134,0.1442,0.1517,0.1554,0.1579,0.159,0.1539,0.1528,0.1531,0.1538,0.1672,0.1672,0.1672,0.1672,0,0.038,0.043,0.0432,0.0511,0.0528,0.0522,0.0604,0.0638,0.0728,0.0787,0.0807,0.0969,0.1084,0.1228,0.1382,0.1453,0.1541,0.1559,0.1463,0.1461,0.1449,0.1459,0.1455,0.1496,0.1541,0.1539,0.1538,0,0.0324,0.0305,0.0345,0.0347,0.0378,0.04,0.0429,0.0538,0.0589,0.0723,0.0745,0.0856,0.0984,0.116,0.1278,0.141,0.1472,0.1418,0.1448,0.1424,0.1445,0.1452,0.149,0.1387,0.1385,0.1383,0.1381,0,0.0226,0.0223,0.0232,0.0225,0.0238,0.0288,0.0343,0.0371,0.0515,0.0597,0.074,0.0843,0.0958,0.1087,0.1198,0.1285,0.1394,0.138,0.1403,0.1352,0.1315,0.1366,0.1384,0.1364,0.1366,0.1367,0.1368,0.1369,0.015,0.0123,0.0122,0.0122,0.0153,0.0233,0.0315,0.0403,0.0517,0.0707,0.0747,0.0915,0.0949,0.1109,0.1172,0.1198,0.1266,0.1251,0.127,0.1284,0.1304,0.125,0.1215,0.1216,0.1217,0.1217,0.1218,0,0.0078,0.0059,0.004,0.0076,0.0129,0.0177,0.0315,0.0447,0.064,0.0715,0.088,0.0982,0.102,0.1049,0.1052,0.1096,0.1155,0.1138,0.1156,0.1214,0.1201,0.1175,0.107,0.107,0.107,0.107,0.107,0.107,0.0046,-0.0005,-0.0009,0.006,0.0126,0.03,0.0432,0.0626,0.0739,0.0936,0.1026,0.1087,0.1086,0.0996,0.0994,0.1023,0.1123,0.1075,0.1184,0.1175,0.1188,0.1201,0.1179,0.1077,0.1077,0.119,0.1191,0.1191]}],[{"header":{"parameterUnit":"m.s-1","parameterCategory":2,"la1":30.2991,"la2":30.254,"lo1":-89.0895,"lo2":-89.0444,"dy":0.0017,"dx":0.0017,"nx":28,"ny":28,"refTime":"2025-02-04T03:00:00:Z","depth":"2","parameterNumber":2,"parameterNumberName":"U-component_of_CURRENTS"},"data":[0,0,0,0,0,0,0,0,0,0,0,0,0,0,0,0,0,0,0,0,0,0,0,0,0,0,0,0,0,0,0,0,0,0,0,0,0,0,0,0,0,0,0,0,0,0,0,0,0,0,0,0,0,0,0,0,0,0,-0.1987,-0.1987,0,-0.2001,-0.2002,-0.2002,-0.2018,-0.2018,-0.2018,-0.2018,-0.1946,-0.1943,-0.1941,0,0,0,0,0,0,0,0,0,0,0,0,0,-0.1965,-0.1965,-0.1987,-0.1987,-0.1987,-0.2001,-0.2002,-0.2002,-0.2018,-0.2018,-0.2018,-0.2018,-0.1946,-0.1944,-0.1941,0,0,0,0,0,0,0,0,0,0,0,0,0,-0.1977,-0.1966,-0.1986,-0.1996,-0.1997,-0.2001,-0.2002,-0.2002,-0.2018,-0.2018,-0.2018,-0.2019,-0.1947,-0.1944,-0.1941,-0.1917,0,0,-0.1931,-0.193,0,0,0,0,0,0,0,0,-0.1977,-0.1978,-0.1994,-0.1995,-0.1996,-0.2007,-0.1967,-0.1969,-0.2018,-0.2011,-0.2018,-0.2019,-0.1957,-0.1953,-0.1958,-0.1914,-0.191,-0.1931,-0.1929,-0.1928,-0.1927,0,0,0,0,0,0,0,-0.1976,-0.1978,-0.1993,-0.1994,-0.1996,-0.1997,-0.1999,-0.1968,-0.1981,-0.2011,-0.2012,-0.2013,-0.1957,-0.1961,-0.1956,-0.1909,-0.1931,-0.1928,-0.1926,-0.1925,-0.1831,-0.183,0,0,0,0,0,0,-0.1972,-0.1977,-0.1993,-0.1994,-0.1986,-0.1997,-0.2,-0.2004,-0.1984,-0.1981,-0.2012,-0.2013,-0.1966,-0.196,-0.1954,-0.1918,-0.1928,-0.1925,-0.1923,-0.1831,-0.1831,-0.183,0,0,0,0,0,0,-0.1972,-0.1974,-0.1992,-0.1985,-0.1987,-0.1997,-0.2002,-0.2004,-0.2009,-0.1985,-0.1982,-0.2015,-0.1966,-0.1958,-0.1925,-0.1916,-0.1924,-0.1921,-0.1832,-0.1831,-0.183,-0.1851,0,0,0,0,0,0,-0.1971,-0.1974,-0.1976,-0.1985,-0.1987,-0.2004,-0.2002,-0.2004,-0.2008,-0.2009,-0.1985,-0.1979,-0.1966,-0.1929,-0.1921,-0.1912,-0.1918,-0.1833,-0.1832,-0.1831,-0.1851,-0.1851,-0.1851,0,0,0,0,0,-0.1971,-0.1979,-0.1976,-0.1978,-0.199,-0.2004,-0.2006,-0.2014,-0.2008,-0.2017,-0.1991,-0.198,-0.1916,-0.1926,-0.1917,-0.1906,-0.1834,-0.1832,-0.1831,-0.1851,-0.1851,-0.1851,0,0,0,0,0,0,-0.1967,-0.1981,-0.1979,-0.1989,-0.1997,-0.2007,-0.2011,-0.2012,-0.2001,-0.1994,-0.197,-0.1962,-0.1931,-0.1912,-0.1924,-0.1875,-0.1873,-0.187,-0.1892,-0.1891,-0.1891,-0.1909,-0.1916,0,0,0,0,0,-0.1966,-0.1975,-0.1987,-0.1991,-0.1996,-0.2,-0.2005,-0.2009,-0.2001,-0.1998,-0.1974,-0.1945,-0.1918,-0.19,-0.1876,-0.1844,-0.183,-0.1831,-0.1831,-0.1831,-0.1839,-0.1817,-0.1816,-0.1825,-0.1825,-0.1825,0,0,-0.1963,-0.1971,-0.1975,-0.199,-0.1994,-0.2008,-0.2004,-0.2012,-0.2014,-0.1987,-0.1969,-0.1942,-0.191,-0.1882,-0.1865,-0.1864,-0.1816,-0.1829,-0.183,-0.1837,-0.1815,-0.1815,-0.1814,-0.1824,-0.1825,-0.1825,0,0,-0.1967,-0.1969,-0.1983,-0.1995,-0.2005,-0.2008,-0.201,-0.2014,-0.2008,-0.1988,-0.1967,-0.1938,-0.1893,-0.1876,-0.1859,-0.1839,-0.1818,-0.1823,-0.1835,-0.1813,-0.1813,-0.1812,-0.178,-0.1776,-0.1822,-0.1822,-0.1822,0,-0.1964,-0.1983,-0.1988,-0.2007,-0.2017,-0.2009,-0.2028,-0.202,-0.2008,-0.1998,-0.1983,-0.1923,-0.1894,-0.1867,-0.186,-0.184,-0.182,-0.1841,-0.1815,-0.1814,-0.1813,-0.178,-0.1776,-0.1823,-0.1823,-0.1823,-0.1823,0,-0.1983,-0.2,-0.2008,-0.203,-0.204,-0.2052,-0.2049,-0.2043,-0.2023,-0.2011,-0.1975,-0.1933,-0.1904,-0.1882,-0.1863,-0.1839,-0.1823,-0.182,-0.1821,-0.1814,-0.1778,-0.1774,-0.1824,-0.1824,-0.1824,-0.1823,0,0,-0.1968,-0.2016,-0.2017,-0.2045,-0.2055,-0.2073,-0.2064,-0.2065,-0.2064,-0.2024,-0.2013,-0.1957,-0.1934,-0.1913,-0.188,-0.1855,-0.1822,-0.1834,-0.1833,-0.1811,-0.1763,-0.1669,-0.1654,-0.1815,-0.1814,-0.1814,-0.1736,0,-0.1981,-0.2038,-0.2044,-0.2086,-0.2119,-0.2112,-0.2111,-0.2104,-0.208,-0.2062,-0.2008,-0.1982,-0.1945,-0.1927,-0.1895,-0.1846,-0.1813,-0.1843,-0.1766,-0.1763,-0.1688,-0.1647,-0.1519,-0.1432,-0.1732,-0.1731,-0.173,0,-0.1993,-0.2037,-0.2092,-0.2141,-0.2151,-0.2163,-0.2172,-0.2171,-0.2137,-0.2114,-0.2073,-0.2031,-0.198,-0.1952,-0.1863,-0.1882,-0.1825,-0.1782,-0.1778,-0.1683,-0.166,-0.1489,-0.1412,-0.1722,-0.1723,-0.1724,-0.1724,0,-0.2005,-0.2063,-0.2115,-0.2133,-0.2183,-0.2192,-0.2201,-0.2185,-0.2176,-0.2146,-0.2123,-0.2067,-0.2017,-0.1957,-0.1848,-0.1861,-0.1743,-0.1754,-0.1613,-0.1606,-0.1478,-0.1459,-0.1693,-0.1693,-0.1693,-0.1693,-0.1693,0,-0.2019,-0.2062,-0.2129,-0.2164,-0.2213,-0.2226,-0.2245,-0.2246,-0.2217,-0.2178,-0.2149,-0.2085,-0.2014,-0.1925,-0.1855,-0.1699,-0.1744,-0.1602,-0.1575,-0.1478,-0.1461,-0.1706,-0.1708,-0.169,-0.1691,-0.1691,-0.1692,0,-0.2025,-0.2068,-0.2145,-0.2211,-0.2228,-0.2263,-0.2275,-0.2258,-0.2252,-0.2196,-0.2179,-0.2092,-0.1959,-0.1874,-0.1753,-0.168,-0.1572,-0.1507,-0.1388,-0.1346,-0.1453,-0.1457,-0.1356,-0.1352,-0.1349,-0.1346,-0.1344,0,-0.2038,-0.2082,-0.2183,-0.22,-0.2227,-0.2268,-0.2259,-0.2273,-0.223,-0.2165,-0.2105,-0.1994,-0.182,-0.1625,-0.1481,-0.1328,-0.1438,-0.1179,-0.1182,-0.1432,-0.1416,-0.1427,-0.1435,-0.1018,-0.1013,-0.1009,-0.1006,0,-0.2054,-0.2091,-0.2137,-0.2178,-0.219,-0.221,-0.2192,-0.2164,-0.2124,-0.205,-0.1888,-0.1758,-0.1551,-0.1291,-0.1132,-0.1055,-0.12,-0.1092,-0.137,-0.1124,-0.1107,-0.1094,-0.1115,-0.097,-0.0974,-0.0977,-0.0979,-0.098,-0.2036,-0.2058,-0.2085,-0.2101,-0.2123,-0.2065,-0.2006,-0.1932,-0.1821,-0.1565,-0.1582,-0.1295,-0.124,-0.0844,-0.0794,-0.0792,-0.0867,-0.0868,-0.0883,-0.0902,-0.0878,-0.0855,-0.0667,-0.0668,-0.067,-0.0671,-0.0672,0,-0.1947,-0.1957,-0.1978,-0.1962,-0.1901,-0.197,-0.1876,-0.1704,-0.147,-0.1265,-0.1029,-0.0771,-0.0568,-0.0584,-0.0477,-0.047,-0.0508,-0.0514,-0.0564,-0.0597,-0.0626,-0.0593,-0.0304,-0.0303,-0.0303,-0.0302,0,0,-0.1884,-0.1826,-0.1815,-0.1686,-0.1697,-0.1553,-0.1466,-0.1206,-0.1011,-0.0645,-0.0459,-0.029,-0.0426,-0.0278,-0.0302,-0.0288,-0.0441,-0.0282,-0.0563,-0.0644,-0.0674,-0.0802,-0.0782,0,0,0,0,0]},{"header":{"parameterUnit":"m.s-1","parameterCategory":2,"la1":30.2991,"la2":30.254,"lo1":-89.0895,"lo2":-89.0444,"dy":0.0017,"dx":0.0017,"nx":28,"ny":28,"refTime":"2025-02-04T03:00:00:Z","depth":"2","parameterNumber":3,"parameterNumberName":"V-component_of_CURRENTS"},"data":[0,0,0,0,0,0,0,0,0,0,0,0,0,0,0,0,0,0,0,0,0,0,0,0,0,0,0,0,0,0,0,0,0,0,0,0,0,0,0,0,0,0,0,0,0,0,0,0,0,0,0,0,0,0,0,0,0,0,-0.0786,-0.0786,0,-0.0752,-0.0751,-0.0751,-0.0738,-0.0738,-0.0738,-0.0738,-0.0702,-0.0701,-0.07,0,0,0,0,0,0,0,0,0,0,0,0,0,-0.0795,-0.0795,-0.0786,-0.0786,-0.0785,-0.0752,-0.0751,-0.075,-0.0738,-0.0738,-0.0738,-0.0739,-0.0703,-0.0701,-0.07,0,0,0,0,0,0,0,0,0,0,0,0,0,-0.0778,-0.0795,-0.0786,-0.0776,-0.0774,-0.0752,-0.0751,-0.075,-0.0738,-0.0738,-0.0738,-0.0739,-0.0703,-0.0701,-0.07,-0.0684,0,0,-0.0695,-0.0694,0,0,0,0,0,0,0,0,-0.0779,-0.0778,-0.0777,-0.0776,-0.0775,-0.075,-0.0741,-0.0728,-0.0738,-0.0751,-0.0738,-0.0739,-0.0718,-0.0715,-0.0707,-0.0682,-0.068,-0.0694,-0.0693,-0.0693,-0.0692,0,0,0,0,0,0,0,-0.078,-0.0779,-0.0772,-0.0777,-0.0775,-0.0757,-0.0755,-0.0738,-0.0733,-0.075,-0.0749,-0.0746,-0.0718,-0.0709,-0.0706,-0.068,-0.0694,-0.0693,-0.0692,-0.0691,-0.0615,-0.0614,0,0,0,0,0,0,-0.0788,-0.078,-0.0773,-0.0771,-0.0778,-0.0757,-0.0755,-0.0757,-0.0733,-0.073,-0.0746,-0.0746,-0.0712,-0.0708,-0.0705,-0.0674,-0.0693,-0.0691,-0.069,-0.0616,-0.0615,-0.0614,0,0,0,0,0,0,-0.0789,-0.0788,-0.0774,-0.0775,-0.0772,-0.0757,-0.0759,-0.0756,-0.0753,-0.073,-0.0727,-0.0747,-0.0712,-0.0707,-0.069,-0.0673,-0.069,-0.0689,-0.0617,-0.0616,-0.0614,-0.062,0,0,0,0,0,0,-0.0789,-0.0788,-0.0794,-0.0776,-0.0772,-0.0764,-0.0759,-0.0755,-0.0751,-0.0751,-0.073,-0.0726,-0.0712,-0.0692,-0.0688,-0.0671,-0.0687,-0.0619,-0.0617,-0.0615,-0.0621,-0.0619,-0.0617,0,0,0,0,0,-0.079,-0.0801,-0.0794,-0.0793,-0.078,-0.0764,-0.076,-0.0749,-0.0751,-0.0748,-0.0732,-0.0727,-0.0677,-0.069,-0.0685,-0.0668,-0.062,-0.0617,-0.0615,-0.0622,-0.0619,-0.0617,0,0,0,0,0,0,-0.0805,-0.08,-0.0792,-0.0801,-0.0783,-0.0762,-0.0763,-0.0753,-0.0739,-0.074,-0.0721,-0.0716,-0.069,-0.0679,-0.0694,-0.0638,-0.0644,-0.0641,-0.0651,-0.0648,-0.0646,-0.064,-0.0686,0,0,0,0,0,-0.0811,-0.082,-0.0801,-0.0806,-0.0801,-0.0782,-0.0775,-0.0765,-0.0749,-0.0744,-0.0726,-0.0703,-0.0675,-0.0664,-0.064,-0.0617,-0.0581,-0.0599,-0.0597,-0.0595,-0.0585,-0.052,-0.0511,-0.0607,-0.0607,-0.0607,0,0,-0.0819,-0.0816,-0.0821,-0.081,-0.0798,-0.0787,-0.0779,-0.0771,-0.0756,-0.0741,-0.0721,-0.0697,-0.0667,-0.0636,-0.0623,-0.0627,-0.0547,-0.0592,-0.0592,-0.0582,-0.0517,-0.0507,-0.0499,-0.0605,-0.0605,-0.0606,0,0,-0.0838,-0.0835,-0.0848,-0.0833,-0.0817,-0.0798,-0.0798,-0.0775,-0.0761,-0.0738,-0.0716,-0.0682,-0.0653,-0.0617,-0.0598,-0.057,-0.0538,-0.0564,-0.0549,-0.0487,-0.0479,-0.0471,-0.0407,-0.0394,-0.0563,-0.0563,-0.0563,0,-0.0848,-0.0854,-0.0846,-0.0845,-0.083,-0.0806,-0.0799,-0.0779,-0.075,-0.0728,-0.0734,-0.0655,-0.0638,-0.0579,-0.057,-0.0564,-0.0524,-0.0566,-0.0484,-0.0476,-0.0468,-0.0405,-0.039,-0.0563,-0.0563,-0.0563,-0.0563,0,-0.0871,-0.0867,-0.0871,-0.0859,-0.0843,-0.0832,-0.0801,-0.0782,-0.0763,-0.073,-0.0673,-0.0637,-0.0585,-0.0574,-0.0567,-0.0496,-0.0484,-0.0491,-0.0494,-0.0459,-0.0394,-0.0378,-0.0563,-0.0563,-0.0563,-0.0563,0,0,-0.0904,-0.0891,-0.089,-0.0874,-0.0846,-0.083,-0.0808,-0.0764,-0.0728,-0.0695,-0.0638,-0.0592,-0.0559,-0.0534,-0.0507,-0.0458,-0.0373,-0.0454,-0.0451,-0.0395,-0.0227,-0.0264,-0.025,-0.0368,-0.0365,-0.0363,-0.0203,0,-0.0918,-0.0919,-0.0905,-0.0882,-0.0871,-0.0834,-0.0802,-0.0757,-0.0715,-0.0653,-0.06,-0.0537,-0.0546,-0.051,-0.0463,-0.0392,-0.0333,-0.0415,-0.0265,-0.026,-0.0301,-0.0234,-0.0294,-0.016,-0.0188,-0.0185,-0.0183,0,-0.0945,-0.0931,-0.0926,-0.0872,-0.0862,-0.0843,-0.0774,-0.0741,-0.0655,-0.0616,-0.055,-0.0501,-0.0415,-0.0431,-0.0291,-0.0343,-0.0282,-0.0234,-0.0227,-0.0247,-0.0267,-0.0199,-0.0131,-0.0157,-0.0159,-0.0161,-0.0163,0,-0.0973,-0.0942,-0.0935,-0.0921,-0.0863,-0.0844,-0.0806,-0.0731,-0.0681,-0.0586,-0.053,-0.0434,-0.0364,-0.0285,-0.0199,-0.0233,-0.0042,-0.0074,-0.0042,-0.0044,-0.0057,-0.0065,0.0039,0.0039,0.0038,0.0038,0.0038,0,-0.0995,-0.0983,-0.0944,-0.0937,-0.0893,-0.0851,-0.0791,-0.0744,-0.065,-0.0579,-0.0508,-0.043,-0.0323,-0.0213,-0.0156,-0.0045,-0.0002,-0.0015,0.0002,-0.0062,-0.0072,-0.0048,-0.006,0.0044,0.0043,0.0042,0.0041,0,-0.1038,-0.1018,-0.0998,-0.0938,-0.0914,-0.0886,-0.0793,-0.0744,-0.0655,-0.0562,-0.0527,-0.0392,-0.0258,-0.0149,0.0005,0.002,0.0121,0.015,0.0066,0.0068,0.0068,0.0054,0.0207,0.0207,0.0207,0.0208,0.0208,0,-0.1063,-0.1065,-0.1013,-0.0991,-0.0967,-0.0908,-0.0864,-0.0765,-0.0713,-0.0548,-0.0507,-0.034,-0.027,-0.0055,0.0026,0.0142,0.0177,0.0173,0.0084,0.0088,0.0089,0.0075,0.0061,0.008,0.0079,0.0078,0.0078,0,-0.11,-0.1094,-0.1075,-0.104,-0.1,-0.0933,-0.0867,-0.0823,-0.0705,-0.0626,-0.0511,-0.0443,-0.025,-0.0154,0.0006,0.0064,0.0137,0.0157,0.0231,0.0019,-0.0026,-0.0028,-0.0038,0.0071,0.0072,0.0072,0.0072,0.0073,-0.113,-0.1133,-0.1122,-0.1087,-0.1033,-0.0973,-0.0924,-0.0861,-0.0785,-0.0653,-0.058,-0.0456,-0.0341,-0.0154,-0.0036,0.0102,0.0075,0.0104,0.0105,0.0107,0.0037,-0.001,0.008,0.008,0.0081,0.0081,0.0082,0,-0.1163,-0.1173,-0.116,-0.1117,-0.1082,-0.1023,-0.093,-0.0871,-0.0809,-0.069,-0.0607,-0.0457,-0.0372,-0.0179,-0.0034,0.0019,0.002,0.0092,0.0066,0.007,0.0073,0.0001,0.0036,0.0037,0.0038,0.0038,0,0,-0.118,-0.1202,-0.1205,-0.1177,-0.1133,-0.1041,-0.0983,-0.0883,-0.0777,-0.0657,-0.0546,-0.0505,-0.035,-0.0233,-0.0145,-0.0037,0.0015,-0.0012,0.0001,-0.0042,-0.0037,0.0039,-0.0075,0,0,0,0,0]}],[{"header":{"parameterUnit":"m.s-1","parameterCategory":2,"la1":30.2991,"la2":30.254,"lo1":-89.0895,"lo2":-89.0444,"dy":0.0017,"dx":0.0017,"nx":28,"ny":28,"refTime":"2025-02-04T03:00:00:Z","depth":"4","parameterNumber":2,"parameterNumberName":"U-component_of_CURRENTS"},"data":[0,0,0,0,0,0,0,0,0,0,0,0,0,0,0,0,0,0,0,0,0,0,0,0,0,0,0,0,0,0,0,0,0,0,0,0,0,0,0,0,0,0,0,0,0,0,0,0,0,0,0,0,0,0,0,0,0,0,-0.0522,-0.0523,0,-0.0608,-0.0609,-0.061,-0.0627,-0.0627,-0.0626,-0.0626,-0.0624,-0.0624,-0.0624,0,0,0,0,0,0,0,0,0,0,0,0,0,-0.0477,-0.0477,-0.0521,-0.0523,-0.0524,-0.0608,-0.0609,-0.061,-0.0627,-0.0627,-0.0626,-0.0626,-0.0623,-0.0624,-0.0624,0,0,0,0,0,0,0,0,0,0,0,0,0,-0.0521,-0.0477,-0.0521,-0.0544,-0.0547,-0.0608,-0.0609,-0.061,-0.0627,-0.0627,-0.0626,-0.0625,-0.0623,-0.0624,-0.0624,-0.0643,0,0,-0.0626,-0.0627,0,0,0,0,0,0,0,0,-0.0519,-0.0523,-0.0539,-0.0543,-0.0546,-0.0608,-0.0593,-0.0618,-0.0628,-0.0595,-0.0626,-0.0625,-0.0612,-0.0613,-0.063,-0.0643,-0.0643,-0.0626,-0.0627,-0.0627,-0.0627,0,0,0,0,0,0,0,-0.0515,-0.052,-0.0554,-0.0541,-0.0545,-0.0587,-0.0591,-0.0598,-0.0603,-0.0598,-0.06,-0.0613,-0.0612,-0.0629,-0.063,-0.0643,-0.0626,-0.0627,-0.0627,-0.0628,-0.069,-0.0691,0,0,0,0,0,0,-0.0504,-0.0516,-0.0551,-0.0557,-0.0532,-0.0587,-0.0592,-0.0587,-0.0605,-0.0609,-0.0613,-0.0613,-0.0629,-0.0629,-0.063,-0.0641,-0.0627,-0.0628,-0.0628,-0.0689,-0.069,-0.0691,0,0,0,0,0,0,-0.0502,-0.0505,-0.0548,-0.0541,-0.055,-0.0588,-0.0583,-0.0589,-0.0614,-0.0618,-0.0619,-0.0632,-0.0628,-0.0629,-0.0642,-0.0641,-0.0628,-0.0628,-0.0687,-0.0689,-0.0691,-0.0671,0,0,0,0,0,0,-0.05,-0.0503,-0.0493,-0.0539,-0.055,-0.0576,-0.0584,-0.0592,-0.0624,-0.0625,-0.0635,-0.0634,-0.0628,-0.0641,-0.0642,-0.0642,-0.0629,-0.0685,-0.0688,-0.069,-0.067,-0.0672,-0.0674,0,0,0,0,0,-0.0498,-0.0494,-0.0491,-0.0496,-0.0533,-0.0576,-0.0585,-0.061,-0.0625,-0.0631,-0.0645,-0.0634,-0.0657,-0.0642,-0.0644,-0.0643,-0.0684,-0.0687,-0.069,-0.067,-0.0672,-0.0674,0,0,0,0,0,0,-0.0474,-0.0497,-0.0495,-0.0497,-0.0527,-0.0579,-0.0593,-0.0619,-0.064,-0.0641,-0.0647,-0.0647,-0.0662,-0.0665,-0.0648,-0.0674,-0.0671,-0.0674,-0.0655,-0.0657,-0.0659,-0.0713,-0.0629,0,0,0,0,0,-0.0461,-0.0467,-0.0493,-0.0502,-0.0509,-0.0553,-0.0575,-0.0597,-0.0626,-0.0637,-0.065,-0.0665,-0.0677,-0.0675,-0.0689,-0.0697,-0.0715,-0.0703,-0.0705,-0.0706,-0.0754,-0.076,-0.0767,-0.0701,-0.0701,-0.0701,0,0,-0.0467,-0.0474,-0.0484,-0.0498,-0.0522,-0.0542,-0.0564,-0.06,-0.0631,-0.0631,-0.0669,-0.0675,-0.0686,-0.0696,-0.0702,-0.0693,-0.073,-0.071,-0.071,-0.0759,-0.0764,-0.077,-0.0776,-0.0703,-0.0703,-0.0702,0,0,-0.048,-0.0473,-0.0476,-0.0491,-0.0519,-0.0547,-0.0558,-0.0606,-0.0632,-0.0679,-0.0678,-0.0706,-0.0725,-0.0732,-0.0739,-0.077,-0.0746,-0.0749,-0.0788,-0.0791,-0.0796,-0.0801,-0.0807,-0.0813,-0.0739,-0.0739,-0.0739,0,-0.0474,-0.0474,-0.049,-0.049,-0.0505,-0.0547,-0.056,-0.06,-0.0654,-0.0672,-0.0692,-0.0758,-0.0762,-0.078,-0.079,-0.0777,-0.0763,-0.0766,-0.0791,-0.0797,-0.0802,-0.0808,-0.0814,-0.0739,-0.0739,-0.0739,-0.0739,0,-0.0482,-0.0481,-0.0488,-0.0495,-0.0518,-0.0539,-0.0583,-0.0607,-0.0658,-0.0703,-0.076,-0.0797,-0.0834,-0.0827,-0.0824,-0.0848,-0.082,-0.0793,-0.0778,-0.0807,-0.0811,-0.0818,-0.0738,-0.0738,-0.0738,-0.0738,0,0,-0.0465,-0.0484,-0.0486,-0.0487,-0.0516,-0.0541,-0.0576,-0.0618,-0.0643,-0.073,-0.0776,-0.0844,-0.0877,-0.0893,-0.0882,-0.09,-0.0919,-0.086,-0.086,-0.0856,-0.091,-0.0776,-0.0771,-0.0861,-0.0863,-0.0864,-0.0887,0,-0.0457,-0.0456,-0.0476,-0.0499,-0.05,-0.0532,-0.0572,-0.062,-0.0665,-0.0715,-0.0798,-0.0856,-0.0893,-0.0907,-0.0935,-0.0914,-0.094,-0.0916,-0.0896,-0.0898,-0.0765,-0.0777,-0.087,-0.0892,-0.0894,-0.0895,-0.0896,0,-0.0439,-0.0443,-0.0448,-0.0488,-0.0494,-0.0524,-0.0559,-0.0599,-0.0665,-0.0704,-0.0779,-0.0842,-0.0917,-0.094,-0.0992,-0.0955,-0.096,-0.0962,-0.0961,-0.0863,-0.0778,-0.0867,-0.0909,-0.0908,-0.0907,-0.0906,-0.0906,0,-0.0401,-0.0425,-0.0428,-0.0435,-0.0486,-0.0503,-0.0543,-0.0595,-0.0624,-0.0697,-0.0723,-0.0831,-0.0877,-0.0929,-0.0948,-0.0966,-0.0967,-0.0983,-0.0888,-0.0878,-0.1,-0.0995,-0.1048,-0.1048,-0.1048,-0.1048,-0.1047,0,-0.0365,-0.0373,-0.0414,-0.0413,-0.0439,-0.049,-0.0518,-0.0552,-0.061,-0.0631,-0.0726,-0.0747,-0.0872,-0.0885,-0.0928,-0.09,-0.0951,-0.0922,-0.088,-0.0988,-0.0982,-0.1003,-0.0998,-0.1048,-0.1048,-0.1048,-0.1048,0,-0.0321,-0.0338,-0.0343,-0.0394,-0.0414,-0.0434,-0.05,-0.0518,-0.0569,-0.0585,-0.0622,-0.069,-0.0711,-0.0786,-0.0833,-0.084,-0.0848,-0.0821,-0.0917,-0.0875,-0.0785,-0.0779,-0.0787,-0.0783,-0.0779,-0.0776,-0.0774,0,-0.0301,-0.0294,-0.032,-0.0324,-0.0348,-0.0387,-0.0416,-0.0487,-0.0493,-0.0527,-0.0525,-0.0571,-0.0611,-0.0573,-0.0653,-0.0717,-0.072,-0.0726,-0.0824,-0.0803,-0.0761,-0.0761,-0.076,-0.0768,-0.0767,-0.0766,-0.0765,0,-0.0271,-0.027,-0.0277,-0.0278,-0.0299,-0.0317,-0.0357,-0.036,-0.042,-0.0459,-0.043,-0.0465,-0.0455,-0.0514,-0.0521,-0.0575,-0.0733,-0.0689,-0.0701,-0.0794,-0.0779,-0.0741,-0.0744,-0.0752,-0.0753,-0.0755,-0.0755,0,-0.0253,-0.0239,-0.0239,-0.024,-0.0256,-0.0257,-0.0281,-0.0295,-0.032,-0.0366,-0.0331,-0.0368,-0.041,-0.0432,-0.0436,-0.0468,-0.0538,-0.0573,-0.0593,-0.0608,-0.0541,-0.0495,-0.0359,0,0,0,0,0,-0.0235,-0.021,-0.021,-0.0203,-0.0216,-0.0224,-0.025,-0.0275,-0.0313,-0.0278,-0.0316,-0.0308,-0.0337,-0.0347,-0.0366,-0.0411,-0.0555,-0.0431,-0.0609,-0.0679,-0.0694,-0.0633,0,0,0,0,0,0,-0.0222,-0.0206,-0.0197,-0.0182,-0.017,-0.0183,-0.0196,-0.0219,-0.0202,-0.0236,-0.0248,-0.028,-0.0314,-0.0321,-0.0352,-0.0364,-0.0471,-0.046,-0.0459,-0.0671,-0.0684,-0.0697,-0.0638,0,0,0,0,0]},{"header":{"parameterUnit":"m.s-1","parameterCategory":2,"la1":30.2991,"la2":30.254,"lo1":-89.0895,"lo2":-89.0444,"dy":0.0017,"dx":0.0017,"nx":28,"ny":28,"refTime":"2025-02-04T03:00:00:Z","depth":"4","parameterNumber":3,"parameterNumberName":"V-component_of_CURRENTS"},"data":[0,0,0,0,0,0,0,0,0,0,0,0,0,0,0,0,0,0,0,0,0,0,0,0,0,0,0,0,0,0,0,0,0,0,0,0,0,0,0,0,0,0,0,0,0,0,0,0,0,0,0,0,0,0,0,0,0,0,-0.048,-0.0481,0,-0.0497,-0.0497,-0.0497,-0.0504,-0.0504,-0.0504,-0.0503,-0.054,-0.0541,-0.0542,0,0,0,0,0,0,0,0,0,0,0,0,0,-0.0458,-0.0459,-0.048,-0.0481,-0.0481,-0.0497,-0.0497,-0.0497,-0.0504,-0.0504,-0.0504,-0.0503,-0.054,-0.0541,-0.0543,0,0,0,0,0,0,0,0,0,0,0,0,0,-0.0472,-0.0459,-0.048,-0.0485,-0.0485,-0.0497,-0.0497,-0.0497,-0.0504,-0.0504,-0.0503,-0.0503,-0.0539,-0.0541,-0.0543,-0.0558,0,0,-0.0548,-0.0549,0,0,0,0,0,0,0,0,-0.0471,-0.0473,-0.0484,-0.0485,-0.0485,-0.0497,-0.0503,-0.0518,-0.0504,-0.0498,-0.0503,-0.0503,-0.0527,-0.053,-0.0535,-0.0559,-0.0561,-0.0548,-0.0549,-0.055,-0.055,0,0,0,0,0,0,0,-0.047,-0.0472,-0.0488,-0.0484,-0.0485,-0.0487,-0.0489,-0.0506,-0.0515,-0.0499,-0.0499,-0.0499,-0.0528,-0.0533,-0.0536,-0.0562,-0.0548,-0.0549,-0.0551,-0.0551,-0.0645,-0.0646,0,0,0,0,0,0,-0.0466,-0.0471,-0.0488,-0.0489,-0.0476,-0.0488,-0.049,-0.0494,-0.0514,-0.0517,-0.0499,-0.0499,-0.053,-0.0534,-0.0537,-0.0594,-0.055,-0.0551,-0.0552,-0.0643,-0.0645,-0.0647,0,0,0,0,0,0,-0.0465,-0.0467,-0.0487,-0.0479,-0.0481,-0.0488,-0.0493,-0.0495,-0.0506,-0.0514,-0.0517,-0.0509,-0.053,-0.0535,-0.0564,-0.0594,-0.0552,-0.0554,-0.0642,-0.0644,-0.0646,-0.0683,0,0,0,0,0,0,-0.0465,-0.0467,-0.0473,-0.0479,-0.0482,-0.0502,-0.0494,-0.0495,-0.0505,-0.0505,-0.0524,-0.0526,-0.053,-0.0562,-0.0566,-0.0595,-0.0555,-0.064,-0.0643,-0.0645,-0.068,-0.0686,-0.0691,0,0,0,0,0,-0.0464,-0.0475,-0.0473,-0.0475,-0.0488,-0.0503,-0.0505,-0.0509,-0.0506,-0.0517,-0.0531,-0.0526,-0.0583,-0.0564,-0.0569,-0.0599,-0.0638,-0.0642,-0.0645,-0.0677,-0.0685,-0.0691,0,0,0,0,0,0,-0.0466,-0.0476,-0.0475,-0.0487,-0.0497,-0.0503,-0.0514,-0.0514,-0.0533,-0.0537,-0.0541,-0.0546,-0.0587,-0.0587,-0.0567,-0.0636,-0.0612,-0.0616,-0.0634,-0.0642,-0.0647,-0.0657,-0.0556,0,0,0,0,0,-0.0469,-0.0484,-0.0488,-0.05,-0.0504,-0.0509,-0.0516,-0.0521,-0.0534,-0.0542,-0.0558,-0.0578,-0.0604,-0.0616,-0.064,-0.0672,-0.0663,-0.0696,-0.0702,-0.0707,-0.0719,-0.0731,-0.0739,-0.0658,-0.0658,-0.0658,0,0,-0.0471,-0.0481,-0.0487,-0.0503,-0.0509,-0.0532,-0.0514,-0.053,-0.0558,-0.0544,-0.0592,-0.0601,-0.0618,-0.066,-0.0678,-0.0662,-0.0723,-0.0711,-0.0715,-0.0725,-0.0735,-0.0743,-0.075,-0.066,-0.0659,-0.0659,0,0,-0.0491,-0.0494,-0.0514,-0.0529,-0.0545,-0.055,-0.0556,-0.0572,-0.0588,-0.0629,-0.0629,-0.0659,-0.0696,-0.0716,-0.0729,-0.0782,-0.0756,-0.0784,-0.0819,-0.083,-0.0837,-0.0842,-0.0823,-0.0827,-0.0783,-0.0783,-0.0784,0,-0.0495,-0.0521,-0.0522,-0.0551,-0.0567,-0.0562,-0.059,-0.061,-0.0638,-0.0657,-0.0655,-0.072,-0.0732,-0.0779,-0.0796,-0.0798,-0.078,-0.0787,-0.0836,-0.0842,-0.0847,-0.0827,-0.083,-0.0786,-0.0785,-0.0785,-0.0785,0,-0.0528,-0.0557,-0.0572,-0.0608,-0.0626,-0.0649,-0.0671,-0.0694,-0.071,-0.0731,-0.0786,-0.0804,-0.0841,-0.0848,-0.084,-0.0883,-0.085,-0.0842,-0.0814,-0.0857,-0.0833,-0.0836,-0.0789,-0.0788,-0.0787,-0.0787,0,0,-0.0523,-0.0582,-0.0592,-0.062,-0.0659,-0.0677,-0.0723,-0.076,-0.0788,-0.0829,-0.0871,-0.0923,-0.0924,-0.0939,-0.0931,-0.0938,-0.0953,-0.0901,-0.0901,-0.0875,-0.0947,-0.0837,-0.0829,-0.0942,-0.0943,-0.0944,-0.0908,0,-0.055,-0.0609,-0.0638,-0.07,-0.0726,-0.0748,-0.0798,-0.0834,-0.0855,-0.0895,-0.0924,-0.0969,-0.0961,-0.0973,-0.0984,-0.096,-0.0965,-0.0962,-0.0917,-0.0916,-0.0807,-0.0832,-0.0948,-0.091,-0.0911,-0.0911,-0.0912,0,-0.0577,-0.0613,-0.0672,-0.0746,-0.0761,-0.0806,-0.0859,-0.0901,-0.0949,-0.0967,-0.1005,-0.1019,-0.1054,-0.1035,-0.1036,-0.1026,-0.0999,-0.0976,-0.0974,-0.0864,-0.0812,-0.0864,-0.0917,-0.0917,-0.0916,-0.0916,-0.0915,0,-0.0563,-0.0643,-0.0689,-0.0714,-0.0791,-0.0831,-0.0876,-0.0927,-0.0954,-0.1008,-0.1017,-0.1069,-0.1076,-0.1078,-0.1023,-0.1038,-0.0985,-0.1006,-0.0885,-0.0876,-0.0969,-0.0963,-0.1016,-0.1016,-0.1016,-0.1016,-0.1016,0,-0.0577,-0.0623,-0.0692,-0.0718,-0.0786,-0.0842,-0.0904,-0.0947,-0.0992,-0.1004,-0.1055,-0.104,-0.1083,-0.1048,-0.1026,-0.0936,-0.0993,-0.0894,-0.0866,-0.0982,-0.0979,-0.0969,-0.0964,-0.1015,-0.1015,-0.1016,-0.1016,0,-0.0569,-0.0609,-0.0671,-0.0755,-0.0782,-0.0836,-0.0914,-0.0942,-0.099,-0.0993,-0.1012,-0.1022,-0.0977,-0.0975,-0.0946,-0.0912,-0.0861,-0.0812,-0.0902,-0.0878,-0.0753,-0.0751,-0.0723,-0.0719,-0.0716,-0.0713,-0.071,0,-0.057,-0.0596,-0.0685,-0.0714,-0.076,-0.0831,-0.0867,-0.0935,-0.0927,-0.0945,-0.0917,-0.0909,-0.0898,-0.0779,-0.0781,-0.0741,-0.0727,-0.071,-0.0785,-0.0751,-0.0727,-0.073,-0.0732,-0.0705,-0.0704,-0.0703,-0.0702,0,-0.0568,-0.0604,-0.065,-0.0703,-0.075,-0.0791,-0.0827,-0.0824,-0.086,-0.0894,-0.0828,-0.0812,-0.0736,-0.0713,-0.0661,-0.0633,-0.0741,-0.0675,-0.0684,-0.0755,-0.0729,-0.0708,-0.0715,-0.069,-0.0692,-0.0693,-0.0694,0,-0.0566,-0.0594,-0.0641,-0.0691,-0.0736,-0.0741,-0.0774,-0.0755,-0.0767,-0.0775,-0.0728,-0.0712,-0.0713,-0.0647,-0.0587,-0.0559,-0.0586,-0.0605,-0.0619,-0.0632,-0.0613,-0.0568,-0.0456,0,0,0,0,0,-0.0555,-0.0573,-0.0616,-0.0663,-0.0703,-0.0723,-0.0732,-0.0747,-0.0755,-0.0698,-0.0724,-0.0654,-0.06,-0.0572,-0.0528,-0.0539,-0.0583,-0.0484,-0.0612,-0.0624,-0.0638,-0.0622,0,0,0,0,0,0,-0.0544,-0.0582,-0.0602,-0.062,-0.0643,-0.0668,-0.0679,-0.0687,-0.0643,-0.0657,-0.0621,-0.0629,-0.0571,-0.0629,-0.0524,-0.0515,-0.0585,-0.0468,-0.0466,-0.0616,-0.0629,-0.064,-0.0629,0,0,0,0,0]}]]